ACA421 CYUL-CYYZ

Flight info

Callsign ACA421
Flight time 1h 1m
Altitude 34000
Route BOBKI DCT MELTI DCT TORNI RAGID6
Aircraft A320/M-SDE3FGHIRWY/LB1

Departure

Time 2026-05-06 00:33
Airport Montreal / Pierre Elliott Trudeau International Airport (CYUL)

Arrival

Time 2026-05-06 01:34
Airport Toronto Pearson International Airport (CYYZ)
Time Latitude Longitude Altitude Speed Heading
2026-05-06 00:13 45.45971 -73.75539 91 ft 0 kts 179°
2026-05-06 00:18 45.45977 -73.75539 110 ft 2 kts 178°
2026-05-06 00:19 45.45993 -73.75541 109 ft 2 kts 177°
2026-05-06 00:19 45.46009 -73.75544 109 ft 2 kts 171°
2026-05-06 00:19 45.46025 -73.75549 108 ft 2 kts 160°
2026-05-06 00:19 45.46041 -73.75557 109 ft 2 kts 148°
2026-05-06 00:20 45.46054 -73.75571 109 ft 2 kts 126°
2026-05-06 00:20 45.46061 -73.75591 109 ft 2 kts 99°
2026-05-06 00:20 45.46062 -73.75604 109 ft 0 kts 93°
2026-05-06 00:21 45.46062 -73.75594 109 ft 3 kts 93°
2026-05-06 00:21 45.46064 -73.75533 111 ft 9 kts 86°
2026-05-06 00:22 45.46067 -73.75446 112 ft 11 kts 87°
2026-05-06 00:22 45.46050 -73.75344 111 ft 12 kts 123°
2026-05-06 00:22 45.46006 -73.75230 112 ft 13 kts 110°
2026-05-06 00:22 45.46005 -73.75121 114 ft 10 kts 85°
2026-05-06 00:23 45.46009 -73.75041 115 ft 8 kts 93°
2026-05-06 00:23 45.45988 -73.74951 114 ft 12 kts 105°
2026-05-06 00:23 45.45989 -73.74814 114 ft 16 kts 94°
2026-05-06 00:23 45.45947 -73.74660 116 ft 16 kts 99°
2026-05-06 00:24 45.45969 -73.74528 115 ft 12 kts 60°
2026-05-06 00:24 45.46001 -73.74422 115 ft 12 kts 71°
2026-05-06 00:24 45.46055 -73.74311 115 ft 16 kts 47°
2026-05-06 00:24 45.46121 -73.74213 113 ft 12 kts 41°
2026-05-06 00:25 45.46162 -73.74134 114 ft 9 kts 113°
2026-05-06 00:25 45.46150 -73.74040 114 ft 12 kts 71°
2026-05-06 00:25 45.46216 -73.73952 115 ft 14 kts 36°
2026-05-06 00:25 45.46290 -73.73858 118 ft 14 kts 42°
2026-05-06 00:26 45.46356 -73.73771 119 ft 12 kts 44°
2026-05-06 00:26 45.46413 -73.73694 119 ft 10 kts 42°
2026-05-06 00:26 45.46462 -73.73630 119 ft 9 kts 43°
2026-05-06 00:26 45.46512 -73.73565 116 ft 10 kts 43°
2026-05-06 00:27 45.46566 -73.73494 112 ft 11 kts 43°
2026-05-06 00:27 45.46618 -73.73425 116 ft 11 kts 43°
2026-05-06 00:27 45.46699 -73.73319 113 ft 17 kts 42°
2026-05-06 00:27 45.46782 -73.73211 113 ft 15 kts 42°
2026-05-06 00:28 45.46851 -73.73122 113 ft 13 kts 43°
2026-05-06 00:28 45.46911 -73.73042 112 ft 11 kts 43°
2026-05-06 00:28 45.46955 -73.72983 113 ft 7 kts 43°
2026-05-06 00:28 45.46993 -73.72932 117 ft 10 kts 42°
2026-05-06 00:29 45.47055 -73.72854 113 ft 12 kts 43°
2026-05-06 00:29 45.47114 -73.72777 118 ft 11 kts 43°
2026-05-06 00:29 45.47163 -73.72711 117 ft 9 kts 43°
2026-05-06 00:29 45.47233 -73.72619 115 ft 22 kts 41°
2026-05-06 00:30 45.47369 -73.72443 115 ft 27 kts 43°
2026-05-06 00:30 45.47514 -73.72250 114 ft 29 kts 43°
2026-05-06 00:30 45.47666 -73.72055 117 ft 30 kts 42°
2026-05-06 00:30 45.47812 -73.71859 113 ft 19 kts 58°
2026-05-06 00:31 45.47774 -73.71748 112 ft 14 kts 132°
2026-05-06 00:31 45.47697 -73.71649 113 ft 16 kts 165°
2026-05-06 00:31 45.47618 -73.71714 113 ft 5 kts 224°
2026-05-06 00:31 45.47589 -73.71753 116 ft 7 kts 222°
2026-05-06 00:32 45.47494 -73.71878 114 ft 45 kts 223°
2026-05-06 00:32 45.47086 -73.72420 112 ft 111 kts 221°
2026-05-06 00:32 45.46647 -73.72989 115 ft 145 kts 223°
2026-05-06 00:32 45.45838 -73.74040 520 ft 155 kts 226°
2026-05-06 00:33 45.45046 -73.75131 1094 ft 163 kts 229°
2026-05-06 00:33 45.44219 -73.76295 1754 ft 171 kts 229°
2026-05-06 00:33 45.43365 -73.77573 2289 ft 187 kts 234°
2026-05-06 00:33 45.42523 -73.79857 3021 ft 208 kts 255°
2026-05-06 00:34 45.42395 -73.81262 3488 ft 218 kts 267°
2026-05-06 00:34 45.42516 -73.83473 4223 ft 230 kts 273°
2026-05-06 00:34 45.42773 -73.85725 5222 ft 228 kts 275°
2026-05-06 00:34 45.42991 -73.87948 6240 ft 224 kts 270°
2026-05-06 00:35 45.43046 -73.90144 7207 ft 220 kts 265°
2026-05-06 00:35 45.43000 -73.92316 8129 ft 220 kts 264°
2026-05-06 00:35 45.42983 -73.94558 8761 ft 232 kts 266°
2026-05-06 00:35 45.43034 -73.96886 9540 ft 237 kts 265°
2026-05-06 00:36 45.43058 -73.99233 10350 ft 238 kts 265°
2026-05-06 00:36 45.43090 -74.01621 10988 ft 247 kts 265°
2026-05-06 00:36 45.43128 -74.04135 11453 ft 261 kts 265°
2026-05-06 00:36 45.43167 -74.06782 11974 ft 273 kts 265°
2026-05-06 00:37 45.43186 -74.09535 12492 ft 283 kts 265°
2026-05-06 00:37 45.43179 -74.12388 13033 ft 292 kts 264°
2026-05-06 00:37 45.43148 -74.15315 13687 ft 295 kts 264°
2026-05-06 00:37 45.43102 -74.18230 14460 ft 294 kts 264°
2026-05-06 00:38 45.43023 -74.21108 15155 ft 294 kts 263°
2026-05-06 00:38 45.42917 -74.24027 15864 ft 295 kts 263°
2026-05-06 00:38 45.42813 -74.26949 16568 ft 295 kts 263°
2026-05-06 00:38 45.42717 -74.29878 17250 ft 298 kts 263°
2026-05-06 00:39 45.42626 -74.32843 17888 ft 302 kts 263°
2026-05-06 00:39 45.42533 -74.35853 18388 ft 306 kts 263°
2026-05-06 00:39 45.42367 -74.38865 18914 ft 308 kts 259°
2026-05-06 00:39 45.42078 -74.41890 19483 ft 308 kts 257°
2026-05-06 00:40 45.41576 -74.44856 19983 ft 310 kts 249°
2026-05-06 00:40 45.40904 -74.47801 20472 ft 315 kts 251°
2026-05-06 00:40 45.40319 -74.50820 21020 ft 318 kts 252°
2026-05-06 00:40 45.39786 -74.53886 21558 ft 321 kts 253°
2026-05-06 00:41 45.39275 -74.56991 22095 ft 324 kts 253°
2026-05-06 00:41 45.38769 -74.60093 22620 ft 327 kts 253°
2026-05-06 00:41 45.38254 -74.63247 23143 ft 329 kts 253°
2026-05-06 00:41 45.37728 -74.66430 23601 ft 332 kts 253°
2026-05-06 00:42 45.37192 -74.69640 24043 ft 333 kts 253°
2026-05-06 00:42 45.36651 -74.72855 24500 ft 334 kts 253°
2026-05-06 00:42 45.36111 -74.76062 25022 ft 334 kts 253°
2026-05-06 00:42 45.35569 -74.79267 25480 ft 334 kts 253°
2026-05-06 00:43 45.35023 -74.82485 25890 ft 335 kts 253°
2026-05-06 00:43 45.34473 -74.85724 26269 ft 337 kts 254°
2026-05-06 00:43 45.33920 -74.88977 26662 ft 338 kts 254°
2026-05-06 00:43 45.33372 -74.92187 27052 ft 340 kts 254°
2026-05-06 00:44 45.32812 -74.95454 27448 ft 341 kts 254°
2026-05-06 00:44 45.32245 -74.98731 27844 ft 342 kts 254°
2026-05-06 00:44 45.31675 -75.02020 28208 ft 343 kts 254°
2026-05-06 00:44 45.31104 -75.05316 28572 ft 344 kts 254°
2026-05-06 00:45 45.30530 -75.08622 28927 ft 346 kts 254°
2026-05-06 00:45 45.29952 -75.11950 29278 ft 347 kts 254°
2026-05-06 00:45 45.29375 -75.15279 29614 ft 348 kts 255°
2026-05-06 00:45 45.28794 -75.18628 29961 ft 349 kts 254°
2026-05-06 00:46 45.28210 -75.21981 30233 ft 351 kts 254°
2026-05-06 00:46 45.27623 -75.25340 30489 ft 352 kts 255°
2026-05-06 00:46 45.27033 -75.28724 30747 ft 353 kts 255°
2026-05-06 00:46 45.26438 -75.32111 30992 ft 354 kts 255°
2026-05-06 00:47 45.25837 -75.35506 31259 ft 354 kts 255°
2026-05-06 00:47 45.25238 -75.38893 31605 ft 353 kts 255°
2026-05-06 00:47 45.24642 -75.42260 31953 ft 351 kts 255°
2026-05-06 00:47 45.24047 -75.45618 32295 ft 350 kts 255°
2026-05-06 00:48 45.23454 -75.48961 32584 ft 349 kts 255°
2026-05-06 00:48 45.22863 -75.52300 32891 ft 349 kts 256°
2026-05-06 00:48 45.22272 -75.55634 33218 ft 348 kts 256°
2026-05-06 00:48 45.21683 -75.58950 33548 ft 346 kts 256°
2026-05-06 00:49 45.21092 -75.62260 33776 ft 345 kts 256°
2026-05-06 00:49 45.19945 -75.68654 33794 ft 332 kts 255°
2026-05-06 00:50 45.18812 -75.74982 33794 ft 330 kts 255°
2026-05-06 00:50 45.17682 -75.81292 33796 ft 330 kts 255°
2026-05-06 00:51 45.16541 -75.87605 33799 ft 330 kts 255°
2026-05-06 00:51 45.15395 -75.93906 33802 ft 330 kts 255°
2026-05-06 00:52 45.14250 -76.00194 33804 ft 329 kts 255°
2026-05-06 00:52 45.13106 -76.06473 33832 ft 329 kts 255°
2026-05-06 00:53 45.11967 -76.12709 33772 ft 330 kts 255°
2026-05-06 00:53 45.10808 -76.19002 33779 ft 331 kts 255°
2026-05-06 00:54 45.09273 -76.25131 33793 ft 332 kts 243°
2026-05-06 00:54 45.07012 -76.30840 33797 ft 333 kts 243°
2026-05-06 00:55 45.04759 -76.36565 33796 ft 333 kts 243°
2026-05-06 00:55 45.02499 -76.42285 33805 ft 333 kts 243°
2026-05-06 00:56 45.00233 -76.48011 33811 ft 333 kts 243°
2026-05-06 00:56 44.97970 -76.53725 33839 ft 333 kts 243°
2026-05-06 00:57 44.95695 -76.59442 33812 ft 334 kts 243°
2026-05-06 00:57 44.93431 -76.65115 33820 ft 334 kts 243°
2026-05-06 00:58 44.91146 -76.70836 33829 ft 335 kts 243°
2026-05-06 00:58 44.88857 -76.76560 33829 ft 335 kts 243°
2026-05-06 00:59 44.86569 -76.82276 33835 ft 335 kts 243°
2026-05-06 00:59 44.84274 -76.87992 33844 ft 335 kts 243°
2026-05-06 01:00 44.81974 -76.93707 33820 ft 336 kts 242°
2026-05-06 01:00 44.79648 -76.99496 33885 ft 340 kts 243°
2026-05-06 01:01 44.77310 -77.05279 33890 ft 340 kts 243°
2026-05-06 01:01 44.74971 -77.11050 33885 ft 339 kts 243°
2026-05-06 01:02 44.72656 -77.16773 33887 ft 338 kts 243°
2026-05-06 01:02 44.70321 -77.22517 33884 ft 338 kts 243°
2026-05-06 01:03 44.67982 -77.28251 33880 ft 338 kts 243°
2026-05-06 01:03 44.65640 -77.33998 33855 ft 339 kts 242°
2026-05-06 01:04 44.63294 -77.39741 33850 ft 339 kts 242°
2026-05-06 01:04 44.62120 -77.42611 33583 ft 336 kts 242°
2026-05-06 01:04 44.60959 -77.45445 33320 ft 334 kts 242°
2026-05-06 01:04 44.59823 -77.48219 33074 ft 331 kts 243°
2026-05-06 01:05 44.58680 -77.51013 32805 ft 329 kts 243°
2026-05-06 01:05 44.57544 -77.53794 32537 ft 328 kts 242°
2026-05-06 01:05 44.56408 -77.56552 32282 ft 325 kts 242°
2026-05-06 01:05 44.55288 -77.59266 31944 ft 318 kts 242°
2026-05-06 01:06 44.54190 -77.61933 31561 ft 313 kts 242°
2026-05-06 01:06 44.53107 -77.64553 31183 ft 308 kts 242°
2026-05-06 01:06 44.52035 -77.67147 30690 ft 307 kts 242°
2026-05-06 01:06 44.50975 -77.69719 30264 ft 304 kts 242°
2026-05-06 01:07 44.49918 -77.72280 29809 ft 303 kts 242°
2026-05-06 01:07 44.48866 -77.74821 29354 ft 300 kts 242°
2026-05-06 01:07 44.47826 -77.77329 28921 ft 297 kts 241°
2026-05-06 01:07 44.46797 -77.79820 28516 ft 293 kts 241°
2026-05-06 01:08 44.45780 -77.82272 28106 ft 290 kts 241°
2026-05-06 01:08 44.44770 -77.84690 27711 ft 286 kts 240°
2026-05-06 01:08 44.43768 -77.87086 27316 ft 283 kts 240°
2026-05-06 01:08 44.42783 -77.89444 26941 ft 279 kts 240°
2026-05-06 01:09 44.41808 -77.91784 26562 ft 276 kts 240°
2026-05-06 01:09 44.40851 -77.94081 26203 ft 273 kts 240°
2026-05-06 01:09 44.39910 -77.96338 25815 ft 271 kts 240°
2026-05-06 01:09 44.38961 -77.98610 25438 ft 270 kts 239°
2026-05-06 01:10 44.38017 -78.00869 25054 ft 268 kts 239°
2026-05-06 01:10 44.37080 -78.03112 24662 ft 267 kts 239°
2026-05-06 01:10 44.36146 -78.05344 24259 ft 266 kts 239°
2026-05-06 01:10 44.35213 -78.07567 23872 ft 265 kts 239°
2026-05-06 01:11 44.34280 -78.09790 23474 ft 264 kts 239°
2026-05-06 01:11 44.33354 -78.11996 23035 ft 263 kts 239°
2026-05-06 01:11 44.32430 -78.14190 22631 ft 261 kts 239°
2026-05-06 01:11 44.31513 -78.16368 22238 ft 259 kts 239°
2026-05-06 01:12 44.30603 -78.18533 21855 ft 257 kts 239°
2026-05-06 01:12 44.29697 -78.20679 21477 ft 255 kts 238°
2026-05-06 01:12 44.28798 -78.22807 21092 ft 254 kts 238°
2026-05-06 01:12 44.27904 -78.24922 20726 ft 252 kts 238°
2026-05-06 01:13 44.27016 -78.27022 20359 ft 250 kts 238°
2026-05-06 01:13 44.26136 -78.29109 20001 ft 249 kts 238°
2026-05-06 01:13 44.25269 -78.31155 19649 ft 248 kts 238°
2026-05-06 01:13 44.24396 -78.33217 19286 ft 246 kts 238°
2026-05-06 01:14 44.22661 -78.37307 18585 ft 244 kts 238°
2026-05-06 01:14 44.21802 -78.39336 18244 ft 243 kts 238°
2026-05-06 01:14 44.20945 -78.41359 17869 ft 242 kts 239°
2026-05-06 01:15 44.20091 -78.43371 17510 ft 240 kts 239°
2026-05-06 01:15 44.19240 -78.45366 17173 ft 239 kts 239°
2026-05-06 01:15 44.18392 -78.47339 16852 ft 237 kts 239°
2026-05-06 01:15 44.17549 -78.49316 16653 ft 237 kts 239°
2026-05-06 01:16 44.16709 -78.51294 16347 ft 237 kts 240°
2026-05-06 01:16 44.15883 -78.53235 16040 ft 236 kts 240°
2026-05-06 01:16 44.15044 -78.55200 15717 ft 235 kts 240°
2026-05-06 01:16 44.14204 -78.57153 15396 ft 235 kts 240°
2026-05-06 01:17 44.13366 -78.59104 15074 ft 234 kts 241°
2026-05-06 01:17 44.12532 -78.61052 14764 ft 234 kts 241°
2026-05-06 01:17 44.11699 -78.62993 14449 ft 233 kts 241°
2026-05-06 01:17 44.10870 -78.64928 14137 ft 233 kts 242°
2026-05-06 01:18 44.10043 -78.66868 13823 ft 233 kts 242°
2026-05-06 01:18 44.09215 -78.68803 13508 ft 232 kts 242°
2026-05-06 01:18 44.08391 -78.70726 13167 ft 231 kts 242°
2026-05-06 01:18 44.07580 -78.72619 12848 ft 229 kts 242°
2026-05-06 01:19 44.06754 -78.74539 12527 ft 227 kts 241°
2026-05-06 01:19 44.05948 -78.76419 12195 ft 226 kts 240°
2026-05-06 01:19 44.05149 -78.78285 11903 ft 223 kts 240°
2026-05-06 01:19 44.04346 -78.80120 11599 ft 222 kts 237°
2026-05-06 01:20 44.03368 -78.81741 11295 ft 222 kts 230°
2026-05-06 01:20 44.02320 -78.83305 10984 ft 221 kts 231°
2026-05-06 01:20 44.01271 -78.84882 10666 ft 218 kts 231°
2026-05-06 01:20 44.00259 -78.86410 10360 ft 217 kts 231°
2026-05-06 01:21 43.99236 -78.87948 10048 ft 216 kts 230°
2026-05-06 01:21 43.98218 -78.89475 9727 ft 214 kts 230°
2026-05-06 01:21 43.97208 -78.90986 9391 ft 213 kts 230°
2026-05-06 01:21 43.96543 -78.91981 9181 ft 212 kts 231°
2026-05-06 01:22 43.95188 -78.94009 8651 ft 214 kts 231°
2026-05-06 01:22 43.94518 -78.95011 8492 ft 214 kts 231°
2026-05-06 01:22 43.93196 -78.96986 8101 ft 207 kts 231°
2026-05-06 01:22 43.92545 -78.97957 7889 ft 208 kts 231°
2026-05-06 01:23 43.91558 -78.99437 7563 ft 210 kts 231°
2026-05-06 01:23 43.90564 -79.00927 7309 ft 208 kts 231°
2026-05-06 01:23 43.89568 -79.02419 7253 ft 212 kts 231°
2026-05-06 01:23 43.88243 -79.04403 7131 ft 209 kts 232°
2026-05-06 01:24 43.87690 -79.05511 7076 ft 206 kts 245°
2026-05-06 01:24 43.87268 -79.07408 6965 ft 209 kts 263°
2026-05-06 01:24 43.87354 -79.09420 6786 ft 211 kts 278°
2026-05-06 01:24 43.87614 -79.11396 6605 ft 211 kts 277°
2026-05-06 01:25 43.87876 -79.13430 6432 ft 212 kts 278°
2026-05-06 01:25 43.88126 -79.15418 6256 ft 213 kts 278°
2026-05-06 01:25 43.88379 -79.17441 6070 ft 213 kts 278°
2026-05-06 01:25 43.88630 -79.19467 5889 ft 213 kts 278°
2026-05-06 01:26 43.88882 -79.21498 5718 ft 214 kts 279°
2026-05-06 01:26 43.89137 -79.23534 5534 ft 215 kts 279°
2026-05-06 01:26 43.89392 -79.25581 5358 ft 215 kts 279°
2026-05-06 01:26 43.89648 -79.27634 5178 ft 216 kts 279°
2026-05-06 01:27 43.89905 -79.29690 4997 ft 217 kts 280°
2026-05-06 01:27 43.90052 -79.31771 4814 ft 218 kts 266°
2026-05-06 01:27 43.89639 -79.33783 4643 ft 222 kts 244°
2026-05-06 01:27 43.88678 -79.35476 4455 ft 226 kts 229°
2026-05-06 01:28 43.87588 -79.37052 4267 ft 226 kts 229°
2026-05-06 01:28 43.86503 -79.38624 4079 ft 226 kts 228°
2026-05-06 01:28 43.85395 -79.40192 3896 ft 231 kts 227°
2026-05-06 01:28 43.84307 -79.41761 3753 ft 221 kts 228°
2026-05-06 01:29 43.83272 -79.43274 3586 ft 213 kts 227°
2026-05-06 01:29 43.82262 -79.44754 3366 ft 209 kts 227°
2026-05-06 01:29 43.81277 -79.46197 3187 ft 203 kts 227°
2026-05-06 01:29 43.80327 -79.47585 3095 ft 193 kts 226°
2026-05-06 01:30 43.79423 -79.48908 3006 ft 185 kts 226°
2026-05-06 01:30 43.78567 -79.50159 2998 ft 176 kts 226°
2026-05-06 01:30 43.77757 -79.51341 2931 ft 161 kts 226°
2026-05-06 01:30 43.77021 -79.52416 2770 ft 149 kts 226°
2026-05-06 01:31 43.76327 -79.53429 2606 ft 143 kts 226°
2026-05-06 01:31 43.75654 -79.54412 2415 ft 140 kts 225°
2026-05-06 01:31 43.74987 -79.55384 2212 ft 139 kts 225°
2026-05-06 01:31 43.74321 -79.56360 2009 ft 140 kts 227°
2026-05-06 01:32 43.73664 -79.57330 1811 ft 138 kts 227°
2026-05-06 01:32 43.73011 -79.58317 1648 ft 139 kts 227°
2026-05-06 01:32 43.72346 -79.59285 1461 ft 139 kts 225°
2026-05-06 01:32 43.71677 -79.60218 1228 ft 138 kts 226°
2026-05-06 01:33 43.71007 -79.61205 1033 ft 139 kts 228°
2026-05-06 01:33 43.70348 -79.62163 871 ft 140 kts 227°
2026-05-06 01:33 43.69672 -79.63140 686 ft 141 kts 228°
2026-05-06 01:33 43.69002 -79.64115 570 ft 133 kts 227°
2026-05-06 01:34 43.68522 -79.64806 564 ft 57 kts 226°
2026-05-06 01:34 43.68315 -79.65055 571 ft 33 kts 191°
2026-05-06 01:34 43.68147 -79.65118 570 ft 18 kts 181°
2026-05-06 01:34 43.68102 -79.65059 573 ft 6 kts 110°
2026-05-06 01:35 43.68101 -79.65003 567 ft 11 kts 70°
2026-05-06 01:35 43.68187 -79.64881 568 ft 21 kts 46°
2026-05-06 01:35 43.68291 -79.64732 574 ft 22 kts 46°
2026-05-06 01:35 43.68402 -79.64572 568 ft 24 kts 46°
2026-05-06 01:36 43.68522 -79.64397 571 ft 26 kts 46°
2026-05-06 01:36 43.68648 -79.64214 576 ft 26 kts 46°
2026-05-06 01:36 43.68768 -79.64038 571 ft 20 kts 54°
2026-05-06 01:36 43.68725 -79.63915 571 ft 15 kts 137°
2026-05-06 01:37 43.68655 -79.63826 572 ft 12 kts 135°
2026-05-06 01:37 43.68592 -79.63738 568 ft 13 kts 135°
2026-05-06 01:37 43.68515 -79.63635 569 ft 20 kts 136°
2026-05-06 01:37 43.68396 -79.63481 569 ft 25 kts 137°
2026-05-06 01:38 43.68266 -79.63312 569 ft 26 kts 136°
2026-05-06 01:38 43.68162 -79.63161 573 ft 14 kts 107°
2026-05-06 01:38 43.68204 -79.63073 569 ft 11 kts 40°
2026-05-06 01:38 43.68293 -79.62968 568 ft 21 kts 49°
2026-05-06 01:39 43.68388 -79.62812 567 ft 20 kts 46°
2026-05-06 01:39 43.68367 -79.62742 571 ft 8 kts 139°
2026-05-06 01:39 43.68315 -79.62680 565 ft 12 kts 139°
2026-05-06 01:39 43.68242 -79.62589 564 ft 16 kts 137°
2026-05-06 01:40 43.68205 -79.62502 563 ft 9 kts 64°
2026-05-06 01:40 43.68277 -79.62403 566 ft 22 kts 46°
2026-05-06 01:40 43.68268 -79.62307 566 ft 9 kts 142°
2026-05-06 01:40 43.68176 -79.62191 561 ft 22 kts 137°
2026-05-06 01:41 43.68062 -79.62043 561 ft 22 kts 136°
2026-05-06 01:41 43.67817 -79.61793 564 ft 19 kts 137°
2026-05-06 01:41 43.67745 -79.61697 569 ft 13 kts 121°
2026-05-06 01:42 43.67779 -79.61604 562 ft 11 kts 43°
2026-05-06 01:42 43.67832 -79.61529 565 ft 10 kts 46°
2026-05-06 01:42 43.67877 -79.61464 566 ft 9 kts 46°
2026-05-06 01:42 43.67928 -79.61431 563 ft 10 kts 330°
2026-05-06 01:43 43.67970 -79.61491 561 ft 5 kts 319°
2026-05-06 01:43 43.67978 -79.61501 567 ft 0 kts 316°